Location: Haliburton Scout Reserve
(45.0900°N, 78.3200°W)
Time: 20:06:15
(UTC-04:00)

STRAND 1 - Pass Details

Date: 01 April 2023
Orbit: 767 x 779 km, 98.4° (Epoch: 06 June)

Event Time Altitude Azimuth Distance (km) Brightness Sun altitude
Rises 21:15:06 0° 3° (N) 3,250 ? -16.7°
Reaches altitude 10° 21:17:45 10° 350° (N) 2,318 ? -17.1°
Maximum altitude 21:21:52 25° 297° (WNW) 1,507 ? -17.8°
Drops below altitude 10° 21:25:58 10° 243° (WSW) 2,305 ? -18.4°
Sets 21:28:36 0° 230° (SW) 3,228 ? -18.8°
